Wetbulb
56.30 55.97 55.49 55.30 54.71 54.48 54.13 53.96 54.04 54.41 54.40 54.76 55.12 55.49 55.75 56.17 55.47 48.90 43.39 49.46 54.06 60.69 59.70 51.69 51.61 50.54 48.33 43.13 41.94 40.65 33.05 28.87 32.70 35.48 37.77 42.42 40.20 43.79 47.08 45.46 45.36 47.15 46.89 49.22 61.16
55.71 55.42 55.29 54.68 54.39 54.06 54.06 53.95 54.10 54.29 54.48 54.53 54.89 55.29 55.82 55.65 50.96 46.22 54.21 59.05 62.02 60.90 49.48 49.40 47.67 47.90 41.67 38.78 37.85 36.79 30.81 32.72 38.52 38.51 36.35 39.82 37.68 41.88 42.50 43.03 42.81 45.44 48.15 49.98 61.20
55.23 55.18 54.89 54.48 54.10 53.95 53.85 53.79 53.91 54.26 54.30 54.61 55.19 55.69 55.96 55.12 43.10 45.80 59.73 61.26 61.85 56.90 50.52 50.29 48.10 44.19 38.76 38.49 37.28 33.51 32.94 36.15 37.68 39.66 39.60 39.42 40.50 41.38 40.69 38.35 42.48 43.13 45.46 47.88 55.58
54.88 55.03 54.71 54.20 53.97 54.08 53.88 54.26 54.22 54.38 54.67 54.70 55.26 55.75 56.27 48.34 34.59 47.07 61.13 60.55 61.23 53.68 51.94 47.30 44.07 39.08 35.55 35.86 38.25 34.69 38.27 39.33 41.39 41.39 40.38 39.08 41.29 41.16 41.38 42.09 45.16 45.76 46.60 47.17 48.29
54.73 54.76 54.59 54.06 54.63 54.52 54.46 54.80 54.66 54.60 54.54 54.51 55.57 56.16 48.78 37.10 38.55 48.91 61.62 59.52 53.51 52.48 49.11 44.87 41.50 39.44 35.05 36.35 37.81 34.42 37.89 40.88 42.44 41.29 39.33 41.37 40.24 40.85 40.16 44.85 45.87 46.11 46.63 46.07 46.41
55.00 54.59 54.15 53.92 54.54 54.59 54.63 54.51 54.42 54.50 54.73 55.31 57.02 55.89 45.48 37.55 47.19 51.61 55.98 52.42 51.22 49.93 46.60 44.14 42.09 41.31 38.68 37.02 36.50 38.73 38.91 40.11 40.40 40.35 38.53 37.99 39.72 39.40 42.60 45.07 44.80 44.93 44.98 44.78 45.87
55.60 54.90 53.94 53.96 54.55 54.74 54.69 54.85 54.40 54.26 54.90 56.35 56.81 53.26 43.91 41.16 50.43 54.01 53.10 47.32 50.05 50.98 46.93 46.25 45.59 43.11 40.19 38.55 40.26 40.89 36.96 38.39 37.86 37.36 39.14 39.26 37.45 38.23 43.63 43.82 43.11 43.44 43.67 44.55 45.22
55.40 54.30 53.71 53.80 54.28 54.65 54.82 54.44 54.07 54.30 54.91 56.94 56.16 49.57 43.04 50.11 49.74 51.88 51.72 50.39 50.94 50.66 49.85 49.57 46.83 42.35 40.30 41.08 40.56 36.50 34.66 29.33 36.52 38.89 41.04 39.14 32.49 40.52 45.63 42.57 43.19 43.55 43.91 44.89 44.74
55.04 54.18 53.27 53.71 54.28 54.40 54.22 53.63 54.53 54.60 55.26 56.26 49.62 46.48 41.67 55.28 50.56 52.36 52.30 49.76 49.52 49.12 48.19 51.74 45.23 40.06 40.43 35.06 31.97 32.17 28.11 30.08 33.74 38.89 39.97 37.89 35.87 42.72 46.10 44.19 41.90 41.98 42.29 43.73 44.38
54.71 54.05 53.09 53.66 54.03 54.05 53.59 53.31 55.49 54.40 54.69 54.34 52.81 40.19 43.27 43.98 48.45 51.16 51.10 51.43 48.06 45.88 44.32 41.87 38.35 34.71 33.17 32.24 25.32 28.56 28.13 30.85 32.46 36.82 39.20 37.16 37.46 41.99 44.15 43.31 42.73 41.58 41.77 42.40 43.87
54.79 53.93 53.65 53.97 53.77 53.45 49.23 44.69 42.11 39.22 45.73 39.12 41.61 43.06 44.43 48.21 49.75 47.52 49.27 47.96 45.71 41.99 36.09 37.06 33.29 30.62 34.09 34.94 36.38 34.71 32.29 31.56 35.67 39.78 36.90 37.51 38.63 40.48 43.32 42.37 40.70 41.84 41.53 41.99 43.28
54.52 53.89 53.69 53.79 53.36 52.83 45.22 43.35 43.54 42.80 38.63 43.54 46.89 46.99 49.31 48.03 43.90 46.11 48.60 42.32 40.60 36.71 37.05 33.67 30.97 37.73 38.58 37.64 35.45 34.01 31.82 31.34 35.64 39.16 37.37 37.63 37.45 41.17 42.40 42.09 43.38 43.57 43.60 42.06 42.46
53.67 53.36 53.50 53.15 52.97 46.87 44.38 45.62 45.23 44.11 36.66 42.79 45.63 45.33 45.64 46.41 42.75 43.72 45.21 42.12 39.17 35.46 35.41 32.43 35.80 39.52 37.93 35.50 35.15 34.07 32.01 33.03 33.93 38.25 38.68 36.46 35.23 36.87 40.69 41.63 42.88 43.59 43.30 42.88 43.14
53.48 53.05 52.91 52.33 46.59 42.63 42.95 47.29 46.26 45.77 32.58 38.71 41.05 44.78 45.93 42.70 41.25 48.77 48.29 42.72 38.91 35.01 35.31 33.83 37.93 37.71 35.56 35.17 36.16 32.22 38.33 37.34 36.03 33.11 28.12 35.92 27.08 33.50 37.34 39.29 40.62 42.93 42.98 43.23 43.53
53.17 53.01 52.57 51.35 43.25 42.85 45.71 45.86 44.98 45.10 22.08 40.38 40.34 45.29 44.75 41.90 43.09 45.06 48.25 44.45 37.25 37.71 35.70 34.53 36.04 36.36 34.86 36.19 38.53 34.83 40.12 37.59 36.82 33.30 29.82 33.91 27.62 31.05 35.64 34.79 37.47 40.35 42.04 43.01 43.02
53.01 52.59 51.97 47.09 42.85 45.28 46.46 44.68 46.39 33.95 25.02 36.47 40.22 38.98 38.48 40.64 41.24 44.39 43.72 44.66 43.55 38.77 37.61 36.45 41.67 38.59 37.82 40.48 40.66 41.38 37.29 35.18 32.37 29.77 27.29 31.47 29.59 28.86 33.02 35.62 37.74 40.00 41.31 42.69 42.82
52.47 51.33 49.21 47.39 43.65 43.96 44.65 44.43 33.43 26.16 37.39 34.98 35.03 37.62 35.32 36.89 38.60 40.39 38.30 35.40 33.68 30.55 29.21 35.53 36.38 40.21 41.21 36.22 38.29 36.71 29.83 19.47 19.66 24.65 24.18 30.23 29.13 32.67 37.85 39.15 39.04 39.87 40.78 41.93 43.09
51.00 49.55 48.28 49.64 47.60 46.02 42.40 36.19 26.84 33.35 33.98 38.70 37.71 36.63 34.35 37.35 37.07 38.38 35.72 31.02 38.22 36.42 31.78 29.57 25.76 36.77 40.49 35.95 33.07 32.43 30.87 21.96 17.74 20.72 21.82 31.24 25.47 30.01 38.56 42.51 42.21 42.65 42.00 43.10 43.54
48.69 45.25 46.33 47.90 47.53 43.74 38.66 27.75 28.09 33.42 38.21 37.52 36.53 32.01 32.07 35.88 35.60 34.02 32.06 32.53 37.81 38.30 28.81 28.84 28.80 39.24 40.19 40.13 37.04 32.27 30.97 33.47 24.08 27.11 26.65 27.46 30.67 36.63 39.98 41.23 41.80 41.90 44.26 43.65 44.44
41.59 42.31 44.33 47.46 45.06 42.36 34.61 32.24 33.31 39.97 41.11 39.29 31.20 34.11 29.44 31.86 31.21 30.64 31.25 37.50 38.25 40.65 37.98 33.86 28.96 36.87 38.95 39.95 38.93 35.28 37.52 24.62 32.69 23.98 21.11 24.13 26.58 28.95 35.17 37.90 41.94 40.81 41.16 42.52 43.84
40.96 40.86 45.92 45.59 44.08 38.23 29.62 30.93 36.50 42.43 41.72 38.11 34.15 32.58 32.98 30.75 31.32 28.94 32.49 37.14 39.64 39.55 38.79 33.87 34.59 32.53 35.88 32.98 31.12 32.04 30.84 34.75 33.96 31.16 24.66 22.66 25.21 34.19 36.18 37.75 39.25 40.42 42.06 42.75 43.65
38.51 36.82 45.58 42.69 34.83 31.52 31.10 35.79 41.49 41.41 42.22 39.36 36.65 35.10 32.07 31.65 30.64 30.66 31.43 36.09 41.95 39.75 33.88 35.66 35.33 29.59 30.31 37.75 38.52 35.95 32.49 33.92 28.64 27.21 31.21 26.91 27.07 39.60 40.22 40.20 40.96 41.31 43.18 43.96 44.60
36.67 37.34 45.23 42.13 29.87 29.12 34.20 37.66 39.99 39.77 38.90 36.60 35.19 36.19 34.81 31.32 27.32 32.23 34.79 39.75 40.33 38.85 35.80 37.57 33.37 25.68 26.25 31.16 36.55 34.01 35.63 35.52 34.85 33.84 29.03 25.84 26.86 40.55 41.25 41.41 41.90 40.26 41.17 43.92 45.32
37.88 33.97 37.70 36.89 35.24 32.29 31.28 33.68 35.46 41.64 38.95 38.00 35.99 36.14 33.66 31.80 33.83 31.12 34.23 37.90 41.13 40.21 44.57 41.99 33.49 31.09 27.15 29.77 34.82 32.71 35.18 36.30 34.28 29.21 29.09 29.90 31.21 36.04 38.57 38.87 40.55 41.84 43.80 45.14 45.66
37.37 33.86 35.74 31.49 33.46 33.26 33.16 34.69 34.53 33.72 38.38 37.36 33.99 33.99 31.37 28.21 30.09 30.43 32.85 35.30 37.76 40.71 41.07 39.61 32.30 33.60 34.43 35.58 35.58 34.69 33.93 34.95 32.21 33.26 29.98 32.68 33.25 36.53 39.81 40.90 41.16 41.60 42.97 43.73 44.97
36.83 36.46 36.46 34.70 35.48 34.38 34.82 31.92 33.26 35.27 34.80 33.69 31.99 34.57 32.42 29.97 31.79 31.17 33.40 33.52 31.15 39.24 39.27 38.44 32.36 35.02 31.78 34.62 34.76 32.78 34.35 34.53 34.76 35.48 33.66 34.10 34.03 39.20 40.45 41.56 41.67 41.94 42.02 41.90 43.28
43.54 42.67 40.77 35.36 33.07 31.63 32.02 33.41 35.24 36.36 37.39 38.35 35.47 34.07 31.72 34.60 37.18 38.68 39.00 38.02 37.72 36.12 33.86 33.49 32.04 27.60 24.70 31.35 30.70 26.26 32.94 33.63 32.91 33.90 33.59 30.53 35.08 36.82 36.83 37.90 38.91 39.76 40.92 41.27 42.67
MSLP
1018.04 1017.62 1017.19 1016.77 1016.41 1016.08 1015.81 1015.55 1015.28 1014.96 1014.66 1014.30 1014.06 1013.86 1013.68 1013.42 1012.98 1012.51 1011.95 1011.01 1010.87 1010.60 1010.53 1010.49 1010.53 1010.71 1010.90 1011.37 1011.66 1012.30 1013.78 1014.32 1013.43 1012.78 1012.07 1010.99 1010.86 1009.85 1009.15 1008.62 1008.16 1007.40 1006.82 1006.56 1006.28
1018.07 1017.60 1017.15 1016.74 1016.39 1016.06 1015.75 1015.45 1015.24 1014.98 1014.72 1014.42 1014.17 1013.91 1013.72 1013.48 1013.18 1012.20 1010.88 1010.65 1010.60 1010.65 1010.68 1010.80 1010.81 1010.87 1011.45 1011.80 1012.17 1012.86 1013.98 1013.74 1012.93 1012.25 1012.08 1011.55 1011.09 1010.25 1009.56 1008.88 1008.26 1007.56 1007.02 1006.62 1006.73
1018.00 1017.49 1017.04 1016.65 1016.30 1015.98 1015.72 1015.44 1015.23 1015.02 1014.76 1014.44 1014.15 1013.97 1013.78 1013.62 1013.14 1011.37 1010.54 1010.62 1010.73 1010.82 1010.92 1010.94 1010.93 1011.04 1011.73 1012.15 1012.71 1013.14 1013.36 1013.08 1012.66 1012.35 1012.25 1011.74 1011.04 1010.39 1009.63 1009.03 1008.34 1007.94 1007.52 1006.94 1006.78
1018.00 1017.42 1016.90 1016.45 1016.08 1015.76 1015.51 1015.29 1015.10 1014.88 1014.68 1014.44 1014.12 1013.86 1013.56 1013.63 1012.78 1011.05 1010.65 1010.75 1010.78 1010.85 1010.87 1010.94 1011.08 1011.69 1012.46 1012.77 1012.83 1013.03 1012.95 1012.92 1012.68 1012.19 1012.26 1011.90 1011.23 1010.48 1009.80 1009.09 1008.22 1007.83 1007.63 1007.18 1006.79
1017.89 1017.33 1016.80 1016.33 1015.89 1015.57 1015.30 1015.09 1014.88 1014.67 1014.46 1014.24 1013.89 1013.60 1013.40 1013.05 1011.95 1010.88 1010.76 1010.90 1010.96 1011.09 1011.20 1011.30 1011.49 1011.93 1012.46 1012.76 1012.79 1012.98 1013.00 1012.81 1012.47 1012.23 1012.07 1011.56 1011.06 1010.46 1009.87 1008.97 1008.28 1008.01 1007.67 1007.35 1006.87
1017.78 1017.21 1016.71 1016.20 1015.68 1015.30 1015.00 1014.83 1014.66 1014.46 1014.23 1013.95 1013.61 1013.48 1013.23 1012.41 1011.15 1011.03 1011.10 1011.31 1011.37 1011.42 1011.38 1011.28 1011.49 1011.73 1012.16 1012.58 1012.93 1012.81 1012.91 1012.77 1012.37 1012.02 1011.69 1011.42 1010.77 1010.41 1009.49 1008.74 1008.54 1008.19 1007.90 1007.48 1007.08
1017.69 1017.15 1016.62 1016.06 1015.51 1015.09 1014.70 1014.45 1014.39 1014.25 1014.12 1013.85 1013.63 1013.56 1013.08 1011.98 1011.26 1011.07 1011.26 1011.24 1011.17 1011.26 1011.35 1011.24 1011.46 1011.80 1012.30 1012.65 1012.73 1012.94 1013.20 1012.98 1012.47 1011.97 1011.57 1011.19 1010.71 1010.20 1009.18 1009.02 1008.64 1008.29 1007.83 1007.41 1006.96
1017.56 1017.00 1016.46 1015.87 1015.34 1014.91 1014.49 1014.12 1014.07 1014.01 1013.99 1013.82 1013.69 1013.63 1012.62 1011.36 1011.28 1011.24 1011.23 1011.04 1011.00 1011.22 1011.41 1011.25 1011.36 1011.93 1012.31 1012.63 1013.05 1013.44 1013.70 1013.61 1012.55 1012.10 1011.38 1011.37 1010.79 1009.46 1008.98 1008.99 1008.67 1007.92 1007.54 1007.23 1006.73
1017.42 1016.83 1016.30 1015.75 1015.19 1014.72 1014.32 1013.83 1013.58 1013.69 1013.82 1013.83 1013.93 1013.67 1012.37 1011.32 1011.29 1010.91 1011.22 1011.25 1010.96 1010.96 1011.05 1011.20 1011.53 1012.50 1012.81 1013.41 1014.12 1014.26 1014.28 1013.75 1012.84 1011.87 1011.73 1011.44 1010.65 1009.74 1009.09 1008.99 1008.54 1007.83 1007.32 1007.18 1006.81
1017.23 1016.53 1015.98 1015.41 1014.89 1014.43 1014.14 1013.80 1013.68 1013.73 1013.96 1013.91 1013.89 1013.84 1012.13 1011.47 1010.93 1010.66 1010.79 1011.12 1011.41 1011.26 1011.32 1011.66 1012.61 1013.20 1013.85 1014.29 1014.57 1014.37 1014.30 1013.77 1012.91 1011.81 1011.53 1011.23 1010.27 1009.72 1009.07 1008.78 1008.20 1007.81 1007.11 1007.09 1006.85
1017.05 1016.38 1015.68 1015.12 1014.62 1014.25 1014.11 1013.97 1014.27 1013.97 1013.77 1013.61 1013.50 1013.07 1012.11 1011.24 1010.66 1010.35 1010.40 1011.11 1011.41 1011.60 1012.14 1012.58 1013.21 1013.69 1013.57 1013.69 1013.75 1013.97 1013.92 1013.40 1012.35 1011.58 1011.37 1010.63 1009.53 1009.26 1008.59 1008.16 1007.69 1007.11 1006.86 1006.56 1006.54
1016.86 1016.18 1015.48 1014.91 1014.43 1014.00 1014.14 1014.35 1014.36 1014.32 1013.89 1012.92 1012.86 1012.55 1011.78 1011.39 1011.06 1010.32 1010.32 1011.10 1011.61 1012.03 1012.49 1013.27 1013.14 1012.48 1012.54 1012.97 1013.43 1013.58 1013.47 1012.90 1011.70 1011.09 1011.01 1010.28 1008.64 1008.32 1008.10 1007.41 1006.79 1006.20 1006.03 1005.90 1006.16
1016.73 1015.79 1015.16 1014.59 1014.21 1014.22 1014.28 1013.83 1013.64 1013.82 1014.05 1012.73 1012.17 1011.69 1011.37 1011.50 1011.14 1011.09 1010.79 1010.82 1011.46 1012.06 1012.35 1012.93 1011.99 1011.89 1012.33 1012.40 1012.77 1012.79 1012.84 1012.28 1011.66 1010.83 1010.51 1010.10 1007.49 1007.63 1006.78 1006.12 1005.62 1005.14 1005.06 1005.13 1005.22
1016.49 1015.66 1015.07 1014.48 1014.46 1014.71 1014.13 1013.57 1013.41 1013.35 1013.77 1012.86 1011.95 1011.38 1011.12 1011.36 1011.39 1011.06 1010.88 1011.32 1011.55 1012.13 1012.24 1012.36 1011.68 1011.78 1011.81 1012.04 1012.09 1011.98 1011.74 1011.64 1011.41 1011.37 1011.05 1010.28 1007.69 1007.12 1006.24 1005.45 1004.98 1004.64 1004.54 1004.29 1004.39
1016.17 1015.63 1015.00 1014.57 1014.66 1014.47 1013.96 1013.62 1013.27 1013.44 1013.77 1012.77 1011.90 1011.28 1011.64 1012.11 1012.16 1011.36 1011.34 1011.27 1011.97 1012.35 1012.72 1012.13 1011.89 1011.70 1011.63 1011.30 1011.34 1011.56 1011.58 1011.67 1011.42 1011.50 1011.23 1010.84 1010.56 1006.54 1006.05 1005.52 1004.69 1003.93 1003.69 1003.42 1003.90
1016.05 1015.37 1014.99 1014.91 1014.94 1014.03 1013.71 1013.53 1013.48 1014.30 1013.82 1013.03 1012.48 1012.19 1012.64 1012.58 1012.41 1012.00 1011.96 1012.07 1012.22 1012.72 1012.81 1012.60 1011.75 1011.49 1011.07 1010.84 1011.13 1011.57 1011.92 1011.73 1011.60 1011.82 1011.31 1010.44 1010.06 1005.91 1005.59 1004.63 1003.90 1003.26 1002.81 1002.98 1003.38
1015.79 1015.16 1014.89 1014.84 1014.58 1014.02 1013.80 1014.17 1014.88 1014.72 1014.42 1013.82 1013.25 1012.98 1013.22 1013.14 1012.96 1012.81 1012.85 1012.97 1013.37 1013.79 1013.59 1013.23 1012.16 1011.37 1011.08 1011.35 1011.62 1011.98 1012.79 1013.09 1012.92 1012.61 1011.20 1009.96 1009.32 1005.94 1005.12 1004.16 1003.49 1002.99 1002.70 1002.73 1003.18
1015.56 1014.98 1014.70 1014.31 1014.04 1014.00 1014.05 1014.82 1015.55 1015.33 1014.71 1013.93 1013.67 1013.45 1013.66 1013.50 1013.45 1013.43 1013.61 1013.67 1013.92 1014.34 1014.48 1014.38 1013.13 1011.82 1011.38 1011.68 1012.38 1012.42 1013.28 1013.83 1013.43 1012.61 1011.40 1010.31 1008.17 1005.92 1004.31 1003.19 1002.79 1002.53 1002.58 1002.76 1003.01
1015.72 1015.15 1014.87 1014.14 1013.70 1013.88 1014.81 1016.11 1015.96 1015.53 1014.91 1014.41 1013.98 1013.93 1014.05 1014.03 1014.15 1014.16 1014.00 1014.12 1013.99 1014.38 1014.96 1014.43 1013.50 1012.10 1011.63 1011.25 1012.04 1012.32 1012.80 1012.86 1013.02 1012.39 1011.71 1009.21 1007.25 1005.54 1003.82 1003.21 1002.57 1002.49 1002.65 1002.89 1003.14
1017.43 1016.59 1015.30 1014.18 1013.75 1014.28 1015.73 1016.70 1016.22 1015.41 1014.91 1014.56 1014.65 1014.49 1014.64 1014.68 1014.87 1014.82 1014.29 1013.68 1013.90 1014.10 1014.43 1014.51 1013.10 1011.82 1011.36 1011.14 1011.00 1011.37 1011.95 1012.66 1012.97 1012.30 1011.11 1008.91 1007.24 1005.59 1004.14 1003.61 1003.20 1003.10 1003.22 1003.09 1003.11
1017.62 1016.71 1014.88 1014.24 1014.14 1015.76 1017.60 1017.51 1016.45 1015.45 1015.19 1014.91 1014.73 1014.84 1015.07 1015.21 1015.35 1015.42 1014.68 1013.67 1013.48 1013.82 1014.46 1014.80 1014.41 1012.51 1012.04 1011.45 1010.99 1011.47 1011.75 1012.25 1012.73 1012.42 1011.14 1009.13 1006.37 1004.61 1004.02 1003.73 1003.51 1003.43 1003.14 1002.84 1002.57
1019.05 1017.84 1015.24 1014.45 1016.03 1018.22 1018.55 1018.18 1017.14 1015.92 1015.42 1015.12 1014.89 1015.07 1015.39 1015.54 1015.58 1015.56 1014.81 1013.95 1013.43 1013.84 1014.31 1014.58 1014.26 1012.96 1011.75 1010.41 1010.47 1010.80 1011.27 1011.77 1012.06 1011.61 1010.58 1009.11 1005.50 1004.03 1003.59 1003.69 1003.62 1003.68 1003.14 1002.50 1002.21
1020.64 1019.17 1016.15 1015.73 1018.25 1019.48 1019.15 1018.33 1017.54 1016.58 1016.13 1015.80 1015.75 1015.75 1015.95 1016.27 1016.33 1015.50 1014.63 1013.77 1013.70 1013.83 1013.76 1014.26 1013.92 1013.35 1011.58 1010.92 1010.63 1010.70 1010.58 1010.79 1011.04 1010.73 1009.49 1008.83 1005.30 1004.31 1004.03 1003.87 1003.66 1003.68 1003.24 1002.46 1001.57
1021.21 1020.57 1019.09 1019.10 1019.93 1020.18 1020.11 1019.06 1017.88 1016.69 1016.41 1016.39 1016.07 1016.08 1016.45 1016.62 1016.52 1015.65 1014.77 1014.23 1013.80 1013.69 1013.34 1013.64 1013.46 1013.14 1012.24 1011.04 1010.80 1010.98 1010.50 1010.40 1010.50 1009.86 1008.66 1007.83 1005.38 1004.94 1004.55 1004.47 1003.84 1003.70 1003.40 1002.68 1001.62
1021.89 1022.13 1021.82 1021.26 1021.05 1021.08 1020.65 1019.57 1018.51 1017.83 1017.17 1016.87 1016.61 1016.63 1017.22 1017.02 1016.44 1015.62 1015.04 1014.56 1013.70 1013.07 1013.11 1013.28 1012.95 1012.72 1011.87 1011.19 1010.62 1009.78 1009.55 1009.53 1009.45 1009.09 1008.66 1007.42 1006.54 1005.94 1005.37 1004.75 1004.49 1003.91 1003.21 1002.63 1001.91
1022.29 1022.41 1022.30 1021.86 1021.50 1021.23 1020.48 1019.60 1018.98 1018.51 1018.32 1017.39 1017.22 1016.96 1017.13 1017.27 1016.62 1015.18 1015.04 1014.63 1014.30 1013.23 1013.14 1013.26 1012.85 1012.57 1011.57 1010.48 1010.07 1009.23 1008.80 1008.76 1008.77 1008.76 1008.37 1007.51 1006.67 1006.57 1005.91 1005.21 1004.45 1003.82 1003.16 1002.39 1001.39
1022.00 1022.18 1022.19 1021.72 1021.57 1021.65 1020.75 1019.81 1019.28 1019.15 1018.09 1017.54 1017.25 1017.19 1016.74 1016.06 1015.61 1014.78 1014.08 1013.75 1013.83 1013.85 1013.56 1013.62 1013.52 1013.07 1011.27 1010.45 1009.69 1009.15 1008.48 1008.54 1008.87 1008.70 1008.58 1007.80 1007.46 1007.00 1006.03 1005.20 1004.29 1003.35 1002.80 1001.85 1000.92
Wind_Speed
20 19 18 18 16 15 14 13 12 12 11 12 12 13 14 16 17 3 2 3 2 2 4 5 2 2 3 3 2 3 6 1 2 2 3 8 6 3 4 7 4 5 3 5 8
20 20 18 17 16 15 13 12 11 10 10 11 13 14 15 15 5 4 7 6 4 5 5 6 5 3 4 3 3 6 4 8 6 2 1 7 2 7 2 5 4 6 7 7 5
22 21 20 18 16 14 13 11 10 10 10 11 13 13 13 8 3 4 2 1 2 6 2 2 2 2 5 4 4 1 4 3 1 3 1 4 6 2 3 1 7 7 7 10 2
23 22 21 19 16 14 12 10 9 9 9 10 12 12 13 1 4 3 1 2 4 4 4 4 5 5 4 3 3 1 1 3 6 3 4 4 5 7 6 7 7 9 6 6 7
23 23 21 19 17 14 12 11 10 9 9 10 10 10 1 2 2 4 1 4 5 4 2 3 5 3 2 1 2 2 1 4 7 9 6 6 7 8 5 12 9 9 8 9 8
22 23 21 19 17 15 13 11 9 8 8 8 9 8 1 5 2 5 0 2 2 2 2 1 2 1 3 1 1 3 3 7 6 8 5 3 5 2 7 7 8 8 11 8 8
22 22 21 19 17 16 14 11 8 8 7 7 6 2 2 2 3 1 3 2 1 1 3 0 3 4 1 6 1 3 5 7 4 1 6 3 4 5 8 5 10 9 9 8 10
22 22 22 20 18 17 16 14 10 5 4 4 2 2 1 0 0 1 1 6 3 3 3 3 3 3 3 2 6 5 4 3 6 5 4 4 9 10 12 5 11 9 8 6 6
22 22 22 20 19 17 16 16 5 2 2 1 3 3 4 3 3 4 5 6 3 2 3 3 4 0 4 3 5 5 5 5 7 5 3 3 9 11 14 9 9 10 9 5 7
23 22 23 20 17 16 15 3 6 6 1 2 1 3 2 3 4 2 4 2 3 6 2 4 5 2 4 4 5 7 5 6 11 6 4 7 15 13 13 7 12 9 8 6 8
24 23 22 19 18 14 5 1 6 5 2 2 7 4 5 6 4 4 4 5 3 0 4 2 4 6 12 9 7 6 6 11 12 13 6 13 17 13 14 10 12 10 8 7 9
25 23 21 19 16 7 1 6 1 3 6 2 4 5 6 3 5 4 4 5 5 8 4 3 7 14 8 6 6 7 7 8 9 12 6 11 18 15 13 10 15 15 12 8 5
25 25 22 19 9 3 1 4 1 5 2 7 3 3 4 3 3 7 1 1 5 4 7 9 10 1 5 5 6 6 6 8 16 15 6 8 21 10 9 9 11 13 10 8 10
27 24 20 19 3 2 2 1 5 4 5 6 3 2 6 5 3 1 4 0 3 4 5 6 6 5 4 5 6 10 9 12 12 8 6 5 15 5 9 15 11 14 10 10 9
29 24 17 6 2 1 3 6 2 5 4 5 3 2 8 5 4 5 4 7 4 8 1 9 3 7 7 8 3 6 6 7 13 11 5 6 5 5 2 5 10 10 12 12 6
30 25 11 1 2 5 6 4 4 7 2 4 4 5 6 4 7 4 3 5 4 3 2 6 5 4 6 3 2 3 5 10 3 2 7 12 10 4 6 8 6 6 8 7 4
31 24 1 1 3 5 4 5 7 5 5 4 5 4 2 4 6 3 4 7 1 5 5 7 5 3 3 5 6 8 6 5 6 1 6 5 7 14 13 9 9 10 9 6 2
33 11 2 3 5 4 4 7 4 1 5 4 6 4 4 3 4 3 6 6 3 3 2 2 9 3 1 2 5 8 6 5 5 4 5 3 9 7 9 11 8 7 7 5 3
22 5 3 5 4 2 7 6 5 1 4 6 8 2 3 2 3 5 4 3 4 5 2 4 7 5 13 15 9 3 5 4 2 4 6 4 7 9 11 9 6 6 1 3 5
4 4 4 10 2 6 7 2 3 3 5 3 3 1 3 4 3 6 3 4 3 8 3 4 13 5 3 3 7 7 5 2 2 4 5 5 5 7 7 4 4 6 7 7 4
4 5 4 8 4 8 4 4 5 5 3 3 3 5 6 4 4 3 7 6 4 2 5 1 5 7 5 5 5 2 3 3 3 3 4 6 5 7 7 8 5 6 8 9 8
4 3 5 5 7 2 1 3 6 4 4 5 3 2 3 4 5 5 7 6 3 2 3 3 4 8 10 15 7 5 4 6 3 3 5 4 11 7 5 5 4 8 10 11 6
3 4 5 5 4 4 6 4 3 4 4 3 4 3 3 3 7 4 5 4 7 5 4 4 4 4 9 4 3 3 4 8 6 5 13 8 9 1 5 7 8 8 8 13 16
4 6 6 6 2 4 3 5 5 5 3 3 5 0 4 4 7 9 13 8 4 7 21 10 6 9 11 12 4 8 9 10 8 5 7 12 22 20 19 20 19 12 9 11 15
4 1 2 5 3 2 3 3 3 3 4 5 5 1 5 6 6 7 5 11 10 12 1 2 6 7 16 18 19 24 23 19 16 16 12 12 18 17 16 14 12 14 14 14 15
2 3 3 4 4 4 2 3 2 2 3 6 6 7 5 7 9 22 13 10 8 4 2 1 3 3 8 18 17 20 20 16 15 9 12 14 19 9 14 15 15 15 13 15 16
1 1 2 4 2 2 4 4 4 4 8 10 7 11 10 12 9 17 18 17 13 4 2 2 2 3 6 7 14 8 6 2 2 10 12 10 5 12 18 20 19 18 17 19 18
Wind_Direction
351 350 347 345 345 343 343 341 339 336 331 324 324 320 325 329 327 356 273 198 208 322 333 307 101 81 51 61 54 119 61 108 243 131 260 301 10 283 272 271 324 261 280 291 329
351 350 348 347 346 344 342 341 340 334 330 320 318 320 323 331 327 305 254 284 248 350 23 27 6 19 47 45 27 84 105 211 213 244 303 306 289 287 262 287 265 288 299 319 15
351 350 351 349 347 347 344 341 338 333 327 318 315 315 317 327 325 336 357 232 3 24 26 331 344 44 61 32 4 114 173 196 293 275 39 263 306 302 268 299 250 269 292 314 28
352 351 350 348 347 347 344 341 339 332 325 322 316 319 314 141 98 319 116 56 10 9 7 11 22 44 60 37 317 101 2 82 297 285 323 284 293 304 230 248 248 277 267 285 322
350 351 350 346 343 341 339 337 333 329 325 327 321 328 357 41 286 294 217 26 1 4 45 47 49 105 41 281 328 117 286 293 271 286 242 254 240 238 244 264 287 278 296 285 293
345 350 349 345 340 336 334 331 329 325 324 327 326 333 33 74 322 319 271 357 279 61 346 36 95 25 86 321 116 243 271 282 280 276 260 254 269 182 254 254 276 273 273 278 272
342 346 347 344 338 334 330 326 327 321 323 330 356 10 31 165 353 122 160 249 223 185 330 330 49 47 79 322 322 294 324 332 294 292 291 209 308 226 249 277 270 263 252 269 259
343 346 346 342 336 333 330 323 317 296 302 328 28 7 242 75 271 285 146 300 240 245 248 286 214 224 173 246 3 357 70 8 273 311 270 68 274 277 294 313 290 281 252 256 264
343 343 344 340 335 331 328 320 316 178 203 108 25 43 285 341 303 258 157 241 328 257 241 288 67 108 26 76 359 355 257 280 302 227 269 186 266 283 294 296 285 287 282 271 293
343 341 342 336 333 329 327 299 99 108 90 187 227 29 273 302 286 231 204 189 286 325 9 80 55 53 32 77 266 276 282 269 277 284 211 261 263 274 277 280 276 270 279 254 264
343 341 338 336 332 328 341 44 17 359 61 174 266 242 276 280 275 249 155 133 218 46 242 5 51 254 252 215 239 274 282 268 274 276 283 275 279 280 279 283 276 275 256 246 239
340 341 340 335 333 344 138 76 225 194 322 262 245 266 263 237 318 330 107 166 146 231 110 11 233 248 246 253 224 244 253 266 268 267 235 272 273 278 273 252 257 265 263 240 200
342 340 340 338 338 45 35 135 31 155 93 303 208 257 294 141 295 345 355 305 212 214 202 211 245 197 201 261 251 244 239 270 274 291 256 280 279 240 248 236 241 249 240 230 213
344 341 340 331 61 299 317 75 316 165 67 312 355 335 360 325 27 325 1 233 335 279 265 226 273 232 239 239 239 290 268 281 277 293 278 123 295 233 239 251 252 257 258 240 223
341 344 338 339 186 42 309 331 137 56 29 309 352 302 335 54 276 324 10 7 312 272 292 252 275 267 267 245 228 240 302 274 272 261 287 213 260 277 275 244 252 256 246 252 226
340 342 340 42 36 263 324 318 53 45 281 324 325 333 28 328 328 310 353 20 255 327 318 249 267 224 227 293 84 313 346 312 6 150 253 219 198 303 228 233 265 257 266 254 208
337 338 354 351 294 326 328 46 35 97 355 303 289 320 330 262 305 286 306 329 297 357 324 322 304 272 57 4 351 9 35 328 330 253 239 327 213 253 292 272 246 259 271 278 164
333 333 265 234 293 330 54 51 68 245 262 295 291 288 269 357 262 301 293 306 241 168 305 321 326 340 220 183 222 277 171 175 263 250 268 319 252 250 245 281 279 259 267 317 350
328 335 13 317 304 75 67 56 202 224 298 308 308 257 294 291 270 357 276 263 228 170 205 289 259 261 279 291 155 201 195 224 262 241 270 234 290 301 266 307 270 244 295 343 328
340 341 300 327 33 59 70 244 246 232 311 293 290 260 283 279 327 349 296 234 238 204 160 278 290 254 360 335 217 178 170 38 212 274 259 274 259 241 285 270 344 352 312 290 253
24 26 267 336 54 47 100 248 291 292 4 275 259 269 274 292 248 253 261 288 216 236 143 272 222 282 20 212 210 152 223 168 219 220 263 296 254 217 249 253 236 300 296 295 308
359 9 313 1 53 51 64 309 295 285 345 302 330 307 276 304 267 253 237 221 108 165 208 235 282 272 241 262 233 175 216 163 222 223 233 234 261 257 240 255 260 286 288 290 278
15 278 322 44 67 347 315 294 267 317 299 347 304 7 2 301 337 239 263 275 302 210 207 170 241 298 316 14 70 194 204 205 234 234 242 261 260 244 312 291 265 265 299 308 308
16 353 331 41 50 108 344 287 300 310 267 337 276 308 13 289 227 275 283 306 4 251 283 261 234 220 256 254 260 264 250 246 236 241 273 246 280 284 292 290 295 303 311 299 298
30 299 179 314 334 345 194 257 275 321 316 325 304 36 347 292 283 256 251 291 293 288 10 212 253 228 252 264 268 265 269 269 263 261 261 284 274 285 305 309 290 299 304 306 301
47 24 6 281 310 310 265 251 238 333 270 277 236 295 309 243 230 292 295 292 250 313 273 25 272 293 274 263 268 276 274 263 260 278 285 284 283 355 313 301 289 287 286 287 283
16 27 106 269 302 346 254 267 283 18 272 239 282 314 291 256 260 275 274 273 246 234 273 306 297 279 265 321 306 288 312 125 290 281 280 277 308 302 307 304 302 294 289 280 279